| time (UTC) | temp C | wind direction | speed KPH | gust KPH | rain 1hr cm | rain 24hr cm | rain mn cm | humidity % | barometer mb |
| 20260905165018 | 17 | 288 | 4.8 | 12.9 | 0.00 | 0.20 | 0.10 | 61 | 1015.7 |
| 20260905164515 | 17 | 299 | 4.8 | 12.9 | 0.00 | 0.20 | 0.10 | 61 | 1015.9 |
| 20260905164034 | 17 | 348 | 8.0 | 17.7 | 0.00 | 0.20 | 0.10 | 60 | 1015.8 |
| 20260905163532 | 17 | 315 | 6.4 | 16.1 | 0.00 | 0.20 | 0.10 | 59 | 1015.7 |
| 20260905163029 | 18 | 334 | 8.0 | 20.9 | 0.00 | 0.20 | 0.10 | 59 | 1015.8 |
| 20260905162527 | 18 | 312 | 8.0 | 17.7 | 0.00 | 0.20 | 0.10 | 58 | 1015.7 |
| 20260905162025 | 18 | 334 | 11.3 | 27.4 | 0.00 | 0.20 | 0.10 | 57 | 1015.7 |
| 20260905161523 | 18 | 324 | 11.3 | 30.6 | 0.00 | 0.20 | 0.10 | 56 | 1015.7 |
| 20260905161022 | 19 | 335 | 16.1 | 40.2 | 0.00 | 0.20 | 0.10 | 54 | 1015.8 |
| 20260905160520 | 20 | 291 | 9.7 | 20.9 | 0.00 | 0.20 | 0.10 | 53 | 1015.3 |
| 20260905160018 | 20 | 285 | 12.9 | 25.7 | 0.00 | 0.20 | 0.10 | 53 | 1015.2 |
| 20260905155516 | 20 | 286 | 11.3 | 22.5 | 0.00 | 0.20 | 0.10 | 52 | 1015.1 |
| 20260905155034 | 20 | 283 | 11.3 | 20.9 | 0.00 | 0.20 | 0.10 | 52 | 1015.1 |
| 20260905154532 | 19 | 281 | 12.9 | 29.0 | 0.00 | 0.20 | 0.10 | 52 | 1015.0 |
| 20260905154030 | 19 | 277 | 11.3 | 25.7 | 0.00 | 0.20 | 0.10 | 52 | 1015.0 |
| 20260905153528 | 19 | 282 | 9.7 | 17.7 | 0.00 | 0.20 | 0.10 | 52 | 1015.0 |
| 20260905153026 | 20 | 292 | 9.7 | 16.1 | 0.00 | 0.20 | 0.10 | 51 | 1014.9 |
| 20260905152524 | 20 | 285 | 11.3 | 20.9 | 0.00 | 0.20 | 0.10 | 50 | 1014.9 |
| 20260905152022 | 20 | 291 | 11.3 | 27.4 | 0.00 | 0.20 | 0.10 | 50 | 1014.9 |
| 20260905151521 | 20 | 284 | 8.0 | 17.7 | 0.00 | 0.20 | 0.10 | 50 | 1014.8 |
| 20260905151019 | 20 | 290 | 9.7 | 24.1 | 0.00 | 0.20 | 0.10 | 50 | 1014.8 |
| 20260905150517 | 20 | 282 | 11.3 | 20.9 | 0.00 | 0.20 | 0.10 | 49 | 1015.0 |
| 20260905150035 | 20 | 287 | 11.3 | 20.9 | 0.00 | 0.20 | 0.10 | 48 | 1014.8 |
| 20260905145533 | 20 | 278 | 16.1 | 29.0 | 0.00 | 0.20 | 0.10 | 48 | 1014.8 |
| 20260905145031 | 20 | 287 | 12.9 | 27.4 | 0.00 | 0.20 | 0.10 | 48 | 1014.8 |
| 20260905144529 | 20 | 289 | 12.9 | 27.4 | 0.00 | 0.20 | 0.10 | 48 | 1014.9 |
| 20260905144027 | 20 | 296 | 12.9 | 22.5 | 0.00 | 0.20 | 0.10 | 48 | 1014.8 |
| 20260905143525 | 20 | 290 | 16.1 | 33.8 | 0.00 | 0.20 | 0.10 | 47 | 1014.9 |
| 20260905143024 | 20 | 283 | 12.9 | 24.1 | 0.00 | 0.20 | 0.10 | 48 | 1015.0 |
| 20260905142522 | 20 | 291 | 14.5 | 35.4 | 0.00 | 0.20 | 0.10 | 47 | 1014.9 |
| 20260905142020 | 20 | 283 | 12.9 | 22.5 | 0.00 | 0.20 | 0.10 | 47 | 1015.0 |
| 20260905141518 | 20 | 281 | 14.5 | 38.6 | 0.00 | 0.20 | 0.10 | 47 | 1014.8 |
| 20260905141049 | 20 | 285 | 14.5 | 30.6 | 0.00 | 0.20 | 0.10 | 47 | 1014.8 |
| 20260905141016 | 20 | 285 | 14.5 | 30.6 | 0.00 | 0.20 | 0.10 | 47 | 1014.8 |
| 20260905140534 | 20 | 295 | 12.9 | 27.4 | 0.00 | 0.20 | 0.10 | 48 | 1014.8 |
| 20260905140032 | 20 | 292 | 12.9 | 33.8 | 0.00 | 0.20 | 0.10 | 48 | 1014.7 |
| 20260905135531 | 20 | 277 | 14.5 | 30.6 | 0.00 | 0.20 | 0.10 | 48 | 1014.7 |
| 20260905135028 | 20 | 284 | 17.7 | 33.8 | 0.00 | 0.20 | 0.10 | 47 | 1014.7 |
| 20260905134527 | 20 | 300 | 14.5 | 30.6 | 0.00 | 0.20 | 0.10 | 47 | 1014.7 |
| 20260905134025 | 20 | 294 | 11.3 | 27.4 | 0.00 | 0.20 | 0.10 | 47 | 1014.7 |
| 20260905133523 | 20 | 296 | 12.9 | 30.6 | 0.00 | 0.20 | 0.10 | 49 | 1014.6 |
| 20260905133021 | 20 | 286 | 12.9 | 38.6 | 0.00 | 0.20 | 0.10 | 48 | 1014.6 |
| 20260905132519 | 21 | 292 | 17.7 | 35.4 | 0.00 | 0.20 | 0.10 | 48 | 1014.5 |
| 20260905132017 | 20 | 300 | 14.5 | 35.4 | 0.00 | 0.20 | 0.10 | 49 | 1014.5 |
| 20260905131536 | 20 | 290 | 12.9 | 33.8 | 0.00 | 0.20 | 0.10 | 49 | 1014.5 |
| 20260905131033 | 20 | 287 | 16.1 | 33.8 | 0.00 | 0.20 | 0.10 | 48 | 1014.5 |
| 20260905130532 | 20 | 293 | 17.7 | 37.0 | 0.00 | 0.20 | 0.10 | 48 | 1014.6 |
| 20260905130030 | 20 | 282 | 19.3 | 38.6 | 0.00 | 0.20 | 0.10 | 51 | 1014.6 |
| 20260905125528 | 20 | 280 | 12.9 | 27.4 | 0.00 | 0.20 | 0.10 | 53 | 1014.5 |
| 20260905125027 | 20 | 276 | 12.9 | 27.4 | 0.00 | 0.20 | 0.10 | 52 | 1014.6 |
| 20260905124525 | 20 | 291 | 14.5 | 27.4 | 0.00 | 0.20 | 0.10 | 53 | 1014.6 |
| 20260905124023 | 20 | 283 | 11.3 | 25.7 | 0.00 | 0.20 | 0.10 | 53 | 1014.6 |
| 20260905123521 | 20 | 281 | 14.5 | 35.4 | 0.00 | 0.20 | 0.10 | 52 | 1014.5 |
| 20260905123019 | 21 | 287 | 14.5 | 27.4 | 0.00 | 0.20 | 0.10 | 52 | 1014.6 |
| 20260905122517 | 20 | 286 | 16.1 | 35.4 | 0.00 | 0.20 | 0.10 | 52 | 1014.6 |
| 20260905122035 | 20 | 303 | 17.7 | 35.4 | 0.00 | 0.20 | 0.10 | 51 | 1014.5 |
| 20260905121533 | 20 | 287 | 20.9 | 40.2 | 0.00 | 0.20 | 0.10 | 52 | 1014.5 |
| 20260905121031 | 20 | 284 | 16.1 | 35.4 | 0.00 | 0.20 | 0.10 | 52 | 1014.5 |
| 20260905120529 | 20 | 292 | 16.1 | 43.5 | 0.00 | 0.20 | 0.10 | 54 | 1014.6 |
| 20260905120028 | 19 | 282 | 14.5 | 33.8 | 0.00 | 0.20 | 0.10 | 56 | 1014.5 |
| 20260905115526 | 19 | 283 | 16.1 | 29.0 | 0.00 | 0.20 | 0.10 | 57 | 1014.6 |
| 20260905115023 | 20 | 281 | 16.1 | 35.4 | 0.00 | 0.20 | 0.10 | 56 | 1014.4 |
| 20260905114522 | 20 | 282 | 14.5 | 33.8 | 0.00 | 0.20 | 0.10 | 56 | 1014.4 |
| 20260905114020 | 20 | 287 | 9.7 | 22.5 | 0.00 | 0.20 | 0.10 | 58 | 1014.4 |
| 20260905113518 | 20 | 289 | 14.5 | 30.6 | 0.00 | 0.20 | 0.10 | 57 | 1014.4 |
| 20260905113049 | 20 | 285 | 14.5 | 37.0 | 0.00 | 0.20 | 0.10 | 55 | 1014.4 |
| 20260905113016 | 20 | 285 | 14.5 | 37.0 | 0.00 | 0.20 | 0.10 | 55 | 1014.4 |
| 20260905112534 | 20 | 297 | 16.1 | 37.0 | 0.00 | 0.20 | 0.10 | 55 | 1014.2 |
| 20260905112032 | 20 | 287 | 14.5 | 27.4 | 0.00 | 0.20 | 0.10 | 55 | 1014.4 |
| 20260905111530 | 20 | 268 | 14.5 | 27.4 | 0.00 | 0.20 | 0.10 | 55 | 1014.2 |
| 20260905111028 | 20 | 299 | 16.1 | 33.8 | 0.00 | 0.20 | 0.10 | 55 | 1014.2 |
| 20260905110526 | 20 | 299 | 19.3 | 40.2 | 0.00 | 0.20 | 0.10 | 57 | 1014.1 |
| 20260905110025 | 20 | 278 | 16.1 | 35.4 | 0.00 | 0.20 | 0.10 | 57 | 1014.1 |
| 20260905105522 | 20 | 284 | 12.9 | 29.0 | 0.00 | 0.20 | 0.10 | 57 | 1014.1 |
| 20260905105020 | 20 | 292 | 14.5 | 25.7 | 0.00 | 0.20 | 0.10 | 59 | 1014.1 |
| 20260905104518 | 19 | 282 | 12.9 | 30.6 | 0.00 | 0.20 | 0.10 | 59 | 1014.2 |
| 20260905104049 | 19 | 286 | 17.7 | 40.2 | 0.00 | 0.20 | 0.10 | 58 | 1014.2 |
| 20260905104016 | 19 | 286 | 17.7 | 40.2 | 0.00 | 0.20 | 0.10 | 58 | 1014.2 |
| 20260905103535 | 19 | 291 | 17.7 | 41.8 | 0.00 | 0.20 | 0.10 | 59 | 1014.1 |
| 20260905103033 | 19 | 285 | 14.5 | 27.4 | 0.00 | 0.20 | 0.10 | 60 | 1014.1 |
| 20260905102531 | 19 | 283 | 16.1 | 29.0 | 0.00 | 0.20 | 0.10 | 59 | 1013.9 |
| 20260905102029 | 20 | 291 | 16.1 | 37.0 | 0.00 | 0.20 | 0.10 | 58 | 1013.9 |
| 20260905101527 | 20 | 285 | 17.7 | 46.7 | 0.00 | 0.20 | 0.10 | 58 | 1013.8 |
| 20260905101025 | 20 | 273 | 17.7 | 43.5 | 0.00 | 0.20 | 0.10 | 60 | 1013.8 |
| 20260905100523 | 19 | 292 | 12.9 | 30.6 | 0.00 | 0.20 | 0.10 | 61 | 1013.8 |
| 20260905100021 | 19 | 274 | 14.5 | 29.0 | 0.00 | 0.20 | 0.10 | 60 | 1013.9 |
| 20260905095520 | 19 | 290 | 11.3 | 30.6 | 0.00 | 0.20 | 0.10 | 61 | 1013.8 |
| 20260905095017 | 19 | 285 | 16.1 | 41.8 | 0.00 | 0.20 | 0.10 | 59 | 1013.9 |
| 20260905094535 | 19 | 284 | 16.1 | 33.8 | 0.00 | 0.20 | 0.10 | 61 | 1013.8 |
| 20260905094033 | 19 | 280 | 11.3 | 22.5 | 0.00 | 0.20 | 0.10 | 60 | 1013.7 |
| 20260905093531 | 19 | 281 | 19.3 | 37.0 | 0.00 | 0.20 | 0.10 | 60 | 1013.8 |
| 20260905093029 | 19 | 279 | 14.5 | 35.4 | 0.00 | 0.20 | 0.10 | 60 | 1013.8 |
| 20260905092527 | 19 | 276 | 17.7 | 40.2 | 0.00 | 0.20 | 0.10 | 60 | 1013.8 |
| 20260905092025 | 18 | 276 | 16.1 | 33.8 | 0.00 | 0.20 | 0.10 | 63 | 1013.7 |
| 20260905091522 | 18 | 284 | 14.5 | 35.4 | 0.00 | 0.20 | 0.10 | 64 | 1013.7 |
| 20260905091021 | 18 | 278 | 17.7 | 43.5 | 0.00 | 0.20 | 0.10 | 62 | 1013.7 |
| 20260905090519 | 18 | 273 | 16.1 | 33.8 | 0.00 | 0.20 | 0.10 | 64 | 1013.6 |
| 20260905090049 | 18 | 278 | 16.1 | 33.8 | 0.00 | 0.20 | 0.10 | 65 | 1013.6 |
| 20260905090017 | 18 | 278 | 16.1 | 33.8 | 0.00 | 0.20 | 0.10 | 65 | 1013.6 |
| 20260905085536 | 18 | 277 | 16.1 | 33.8 | 0.00 | 0.20 | 0.10 | 65 | 1013.5 |
| 20260905085033 | 18 | 283 | 12.9 | 27.4 | 0.00 | 0.20 | 0.10 | 66 | 1013.6 |
| 20260905084531 | 18 | 271 | 14.5 | 33.8 | 0.00 | 0.20 | 0.10 | 66 | 1013.5 |
| 20260905084029 | 18 | 295 | 12.9 | 27.4 | 0.00 | 0.20 | 0.10 | 67 | 1013.6 |
| 20260905083527 | 17 | 281 | 16.1 | 35.4 | 0.00 | 0.20 | 0.10 | 68 | 1013.6 |
| 20260905083025 | 17 | 291 | 16.1 | 41.8 | 0.00 | 0.20 | 0.10 | 70 | 1013.7 |
| 20260905082523 | 17 | 282 | 12.9 | 30.6 | 0.00 | 0.20 | 0.10 | 71 | 1013.6 |
| 20260905082020 | 17 | 288 | 12.9 | 30.6 | 0.00 | 0.20 | 0.10 | 71 | 1013.6 |
| 20260905081518 | 17 | 282 | 14.5 | 35.4 | 0.00 | 0.20 | 0.10 | 70 | 1013.6 |
| 20260905081050 | 17 | 282 | 17.7 | 37.0 | 0.00 | 0.20 | 0.10 | 70 | 1013.5 |
| 20260905081016 | 17 | 282 | 17.7 | 37.0 | 0.00 | 0.20 | 0.10 | 70 | 1013.5 |
| 20260905080535 | 17 | 292 | 11.3 | 25.7 | 0.00 | 0.20 | 0.10 | 70 | 1013.6 |
| 20260905080033 | 17 | 293 | 16.1 | 30.6 | 0.00 | 0.20 | 0.10 | 70 | 1013.5 |
| 20260905075530 | 17 | 273 | 14.5 | 30.6 | 0.00 | 0.20 | 0.10 | 71 | 1013.5 |
| 20260905075028 | 17 | 279 | 11.3 | 27.4 | 0.00 | 0.20 | 0.10 | 72 | 1013.4 |
| 20260905074526 | 17 | 287 | 11.3 | 25.7 | 0.00 | 0.20 | 0.10 | 73 | 1013.4 |
| 20260905074024 | 17 | 294 | 9.7 | 20.9 | 0.00 | 0.20 | 0.10 | 73 | 1013.4 |
| 20260905073522 | 17 | 305 | 12.9 | 25.7 | 0.00 | 0.20 | 0.10 | 73 | 1013.3 |
| 20260905073020 | 16 | 288 | 11.3 | 24.1 | 0.00 | 0.20 | 0.10 | 75 | 1013.3 |
| 20260905072518 | 16 | 295 | 9.7 | 25.7 | 0.00 | 0.20 | 0.10 | 75 | 1013.1 |
| 20260905072016 | 16 | 278 | 11.3 | 20.9 | 0.00 | 0.20 | 0.10 | 75 | 1013.1 |
| 20260905071534 | 16 | 293 | 12.9 | 27.4 | 0.00 | 0.20 | 0.10 | 75 | 1013.0 |
| 20260905071033 | 16 | 285 | 11.3 | 25.7 | 0.00 | 0.20 | 0.10 | 75 | 1013.0 |
| 20260905070531 | 16 | 272 | 12.9 | 29.0 | 0.00 | 0.20 | 0.10 | 76 | 1012.9 |
| 20260905070029 | 16 | 284 | 9.7 | 17.7 | 0.00 | 0.20 | 0.10 | 77 | 1013.0 |
| 20260905065527 | 16 | 287 | 11.3 | 30.6 | 0.00 | 0.20 | 0.10 | 76 | 1013.0 |
| 20260905065025 | 16 | 287 | 12.9 | 29.0 | 0.00 | 0.20 | 0.10 | 77 | 1012.9 |
| 20260905064523 | 16 | 284 | 11.3 | 27.4 | 0.00 | 0.20 | 0.10 | 77 | 1012.8 |
| 20260905064021 | 16 | 285 | 12.9 | 25.7 | 0.00 | 0.20 | 0.10 | 77 | 1012.7 |
| 20260905063519 | 16 | 278 | 9.7 | 20.9 | 0.00 | 0.20 | 0.10 | 77 | 1012.6 |
| 20260905063018 | 16 | 279 | 12.9 | 33.8 | 0.00 | 0.20 | 0.10 | 78 | 1012.6 |
| 20260905062516 | 16 | 287 | 12.9 | 33.8 | 0.00 | 0.20 | 0.10 | 78 | 1012.6 |
| 20260905062034 | 16 | 291 | 16.1 | 38.6 | 0.00 | 0.20 | 0.10 | 78 | 1012.4 |
| 20260905061532 | 16 | 282 | 9.7 | 24.1 | 0.00 | 0.20 | 0.10 | 78 | 1012.2 |
| 20260905061029 | 16 | 281 | 9.7 | 25.7 | 0.00 | 0.20 | 0.10 | 78 | 1012.2 |
| 20260905060527 | 16 | 285 | 11.3 | 25.7 | 0.00 | 0.20 | 0.10 | 78 | 1012.1 |
| 20260905060025 | 16 | 288 | 9.7 | 22.5 | 0.00 | 0.20 | 0.10 | 79 | 1012.1 |
| 20260905055523 | 16 | 282 | 11.3 | 24.1 | 0.00 | 0.20 | 0.10 | 79 | 1012.3 |
| 20260905055021 | 16 | 290 | 9.7 | 20.9 | 0.00 | 0.20 | 0.10 | 79 | 1012.3 |
| 20260905054520 | 16 | 284 | 11.3 | 27.4 | 0.00 | 0.20 | 0.10 | 79 | 1012.2 |
| 20260905054017 | 16 | 291 | 12.9 | 29.0 | 0.00 | 0.20 | 0.10 | 80 | 1012.1 |
| 20260905053515 | 16 | 284 | 9.7 | 24.1 | 0.00 | 0.20 | 0.10 | 80 | 1012.1 |
| 20260905053034 | 16 | 285 | 9.7 | 24.1 | 0.00 | 0.20 | 0.10 | 80 | 1012.0 |
| 20260905052532 | 16 | 295 | 11.3 | 27.4 | 0.00 | 0.20 | 0.10 | 80 | 1011.9 |
| 20260905052030 | 16 | 295 | 11.3 | 25.7 | 0.00 | 0.20 | 0.10 | 80 | 1012.0 |
| 20260905051528 | 16 | 287 | 11.3 | 27.4 | 0.00 | 0.20 | 0.10 | 80 | 1012.0 |
| 20260905051026 | 16 | 289 | 11.3 | 27.4 | 0.00 | 0.20 | 0.10 | 80 | 1012.0 |
| 20260905050524 | 16 | 279 | 11.3 | 29.0 | 0.00 | 0.20 | 0.10 | 80 | 1011.8 |
| 20260905050023 | 16 | 292 | 11.3 | 22.5 | 0.00 | 0.20 | 0.10 | 80 | 1011.6 |
| 20260905045520 | 16 | 278 | 12.9 | 24.1 | 0.00 | 0.20 | 0.10 | 81 | 1011.4 |
| 20260905045019 | 16 | 285 | 11.3 | 24.1 | 0.00 | 0.20 | 0.10 | 81 | 1011.4 |
| 20260905044517 | 16 | 282 | 8.0 | 25.7 | 0.00 | 0.20 | 0.10 | 81 | 1011.3 |
| 20260905044035 | 16 | 280 | 16.1 | 33.8 | 0.00 | 0.20 | 0.10 | 81 | 1011.2 |
| 20260905043534 | 16 | 291 | 16.1 | 33.8 | 0.00 | 0.20 | 0.10 | 81 | 1011.2 |
| 20260905043031 | 16 | 277 | 14.5 | 33.8 | 0.00 | 0.20 | 0.10 | 81 | 1011.2 |
| 20260905042529 | 16 | 290 | 14.5 | 25.7 | 0.00 | 0.20 | 0.10 | 82 | 1011.0 |
| 20260905042028 | 16 | 286 | 11.3 | 25.7 | 0.00 | 0.20 | 0.10 | 82 | 1010.9 |
| 20260905041525 | 16 | 276 | 11.3 | 29.0 | 0.00 | 0.20 | 0.10 | 82 | 1010.9 |
| 20260905041024 | 16 | 275 | 12.9 | 29.0 | 0.00 | 0.20 | 0.10 | 82 | 1010.8 |
| 20260905040522 | 16 | 277 | 11.3 | 22.5 | 0.00 | 0.20 | 0.10 | 82 | 1010.7 |
| 20260905040020 | 16 | 275 | 11.3 | 24.1 | 0.00 | 0.20 | 0.10 | 82 | 1010.6 |
| 20260905035518 | 16 | 287 | 11.3 | 27.4 | 0.00 | 0.20 | 0.10 | 83 | 1010.5 |
| 20260905035047 | 16 | 289 | 12.9 | 24.1 | 0.00 | 0.20 | 0.10 | 83 | 1010.3 |
| 20260905035016 | 16 | 289 | 12.9 | 24.1 | 0.00 | 0.20 | 0.10 | 83 | 1010.3 |
| 20260905034534 | 16 | 299 | 9.7 | 33.8 | 0.00 | 0.20 | 0.10 | 83 | 1010.4 |
| 20260905034033 | 16 | 288 | 12.9 | 22.5 | 0.00 | 0.20 | 0.10 | 83 | 1010.3 |
| 20260905033531 | 16 | 276 | 11.3 | 30.6 | 0.00 | 0.20 | 0.10 | 84 | 1010.5 |
| 20260905033029 | 16 | 287 | 9.7 | 35.4 | 0.00 | 0.20 | 0.10 | 84 | 1010.3 |
| 20260905032527 | 16 | 283 | 12.9 | 29.0 | 0.00 | 0.20 | 0.10 | 84 | 1010.5 |
| 20260905032025 | 16 | 284 | 12.9 | 35.4 | 0.00 | 0.20 | 0.10 | 84 | 1010.2 |
| 20260905031523 | 16 | 280 | 14.5 | 33.8 | 0.00 | 0.20 | 0.10 | 84 | 1010.1 |
| 20260905031021 | 16 | 277 | 11.3 | 33.8 | 0.00 | 0.20 | 0.10 | 84 | 1010.0 |
| 20260905030519 | 16 | 282 | 11.3 | 27.4 | 0.00 | 0.20 | 0.10 | 84 | 1010.1 |
| 20260905030018 | 16 | 283 | 11.3 | 20.9 | 0.00 | 0.20 | 0.10 | 84 | 1010.0 |
| 20260905025515 | 16 | 267 | 16.1 | 37.0 | 0.03 | 0.20 | 0.10 | 84 | 1009.9 |
| 20260905025034 | 16 | 274 | 11.3 | 27.4 | 0.03 | 0.20 | 0.10 | 84 | 1009.9 |
| 20260905024532 | 16 | 300 | 11.3 | 24.1 | 0.03 | 0.20 | 0.10 | 84 | 1009.9 |
| 20260905024030 | 16 | 299 | 12.9 | 29.0 | 0.03 | 0.20 | 0.10 | 84 | 1009.9 |
| 20260905023528 | 16 | 283 | 12.9 | 33.8 | 0.00 | 0.18 | 0.10 | 84 | 1010.0 |
| 20260905023026 | 16 | 277 | 14.5 | 27.4 | 0.00 | 0.18 | 0.10 | 84 | 1009.9 |
| 20260905022525 | 16 | 288 | 11.3 | 27.4 | 0.00 | 0.18 | 0.10 | 84 | 1010.0 |
| 20260905022022 | 16 | 275 | 11.3 | 29.0 | 0.00 | 0.18 | 0.10 | 84 | 1010.1 |
| 20260905021521 | 16 | 292 | 9.7 | 17.7 | 0.00 | 0.18 | 0.10 | 84 | 1009.8 |
| 20260905021111 | 16 | 273 | 11.3 | 24.1 | 0.00 | 0.18 | 0.10 | 83 | 1009.3 |
| 20260905021019 | 16 | 273 | 11.3 | 24.1 | 0.00 | 0.18 | 0.10 | 83 | 1009.3 |
| 20260905020517 | 16 | 281 | 11.3 | 24.1 | 0.00 | 0.18 | 0.10 | 83 | 1009.2 |
| 20260905020035 | 16 | 282 | 11.3 | 25.7 | 0.00 | 0.18 | 0.10 | 83 | 1009.4 |
| 20260905015533 | 16 | 287 | 12.9 | 24.1 | 0.00 | 0.18 | 0.08 | 83 | 1009.5 |
| 20260905015031 | 16 | 287 | 11.3 | 25.7 | 0.00 | 0.18 | 0.08 | 83 | 1009.6 |
| 20260905014529 | 16 | 272 | 14.5 | 33.8 | 0.03 | 0.18 | 0.08 | 83 | 1009.7 |
| 20260905014028 | 16 | 284 | 12.9 | 29.0 | 0.03 | 0.18 | 0.08 | 82 | 1009.7 |
| 20260905013526 | 16 | 290 | 11.3 | 25.7 | 0.03 | 0.18 | 0.08 | 82 | 1009.8 |
| 20260905013024 | 16 | 279 | 9.7 | 25.7 | 0.03 | 0.18 | 0.08 | 82 | 1009.8 |
| 20260905012522 | 16 | 282 | 14.5 | 27.4 | 0.03 | 0.18 | 0.08 | 81 | 1009.5 |
| 20260905012020 | 16 | 282 | 12.9 | 25.7 | 0.03 | 0.18 | 0.08 | 80 | 1009.1 |
| 20260905011518 | 16 | 271 | 12.9 | 38.6 | 0.03 | 0.18 | 0.08 | 80 | 1008.9 |
| 20260905011049 | 16 | 305 | 12.9 | 27.4 | 0.03 | 0.18 | 0.08 | 80 | 1009.2 |
| 20260905011017 | 16 | 305 | 12.9 | 27.4 | 0.03 | 0.18 | 0.08 | 80 | 1009.2 |
| 20260905010534 | 17 | 288 | 16.1 | 37.0 | 0.05 | 0.18 | 0.08 | 80 | 1009.4 |
| 20260905010033 | 17 | 289 | 11.3 | 25.7 | 0.05 | 0.18 | 0.08 | 80 | 1009.3 |
| 20260905005531 | 17 | 275 | 12.9 | 33.8 | 0.08 | 0.18 | 0.08 | 80 | 1009.5 |
| 20260905005029 | 17 | 285 | 9.7 | 29.0 | 0.08 | 0.18 | 0.08 | 80 | 1009.0 |
| 20260905004527 | 17 | 277 | 8.0 | 17.7 | 0.05 | 0.15 | 0.05 | 79 | 1008.9 |
| 20260905004025 | 17 | 277 | 11.3 | 27.4 | 0.05 | 0.15 | 0.05 | 80 | 1008.8 |
| 20260905003523 | 17 | 283 | 9.7 | 20.9 | 0.05 | 0.15 | 0.05 | 80 | 1008.7 |
| 20260905003021 | 17 | 276 | 11.3 | 25.7 | 0.05 | 0.15 | 0.05 | 80 | 1008.8 |
| 20260905002519 | 17 | 288 | 11.3 | 24.1 | 0.05 | 0.15 | 0.05 | 80 | 1008.6 |
| 20260905002018 | 17 | 270 | 14.5 | 35.4 | 0.05 | 0.15 | 0.05 | 80 | 1008.5 |
| 20260905001515 | 17 | 291 | 14.5 | 33.8 | 0.05 | 0.15 | 0.05 | 80 | 1008.6 |
| 20260905001034 | 18 | 268 | 14.5 | 33.8 | 0.05 | 0.15 | 0.05 | 80 | 1008.7 |
| 20260905000532 | 18 | 285 | 12.9 | 25.7 | 0.03 | 0.13 | 0.03 | 79 | 1008.7 |
| 20260905000030 | 18 | 286 | 16.1 | 29.0 | 0.00 | 0.13 | 0.03 | 78 | 1008.6 |
| 20260904235528 | 18 | 258 | 16.1 | 35.4 | 0.00 | 0.10 | 0.00 | 78 | 1008.1 |
| 20260904235027 | 18 | 270 | 11.3 | 33.8 | 0.00 | 0.10 | 0.00 | 79 | 1007.7 |
| 20260904234524 | 18 | 272 | 9.7 | 29.0 | 0.00 | 0.10 | 0.00 | 79 | 1007.3 |
| 20260904234023 | 18 | 280 | 9.7 | 27.4 | 0.00 | 0.10 | 0.00 | 80 | 1007.2 |
| 20260904233521 | 18 | 267 | 8.0 | 22.5 | 0.00 | 0.10 | 0.00 | 80 | 1007.4 |
| 20260904233019 | 18 | 262 | 12.9 | 29.0 | 0.00 | 0.10 | 0.00 | 80 | 1007.5 |
| 20260904232517 | 18 | 277 | 9.7 | 22.5 | 0.00 | 0.10 | 0.00 | 80 | 1007.9 |
| 20260904232035 | 18 | 281 | 9.7 | 22.5 | 0.00 | 0.10 | 0.00 | 79 | 1007.8 |
| 20260904231533 | 18 | 262 | 6.4 | 12.9 | 0.00 | 0.10 | 0.00 | 79 | 1007.5 |
| 20260904231031 | 18 | 265 | 4.8 | 12.9 | 0.00 | 0.10 | 0.00 | 78 | 1007.6 |
| 20260904230530 | 18 | 270 | 4.8 | 11.3 | 0.00 | 0.10 | 0.00 | 78 | 1007.6 |
| 20260904230027 | 18 | 252 | 4.8 | 14.5 | 0.00 | 0.10 | 0.00 | 78 | 1007.3 |
| 20260904225525 | 18 | 265 | 3.2 | 9.7 | 0.00 | 0.10 | 0.00 | 78 | 1007.4 |
| 20260904225024 | 18 | 267 | 3.2 | 4.8 | 0.00 | 0.10 | 0.00 | 78 | 1007.4 |
| 20260904224522 | 18 | 289 | 3.2 | 9.7 | 0.00 | 0.10 | 0.00 | 78 | 1007.4 |
| 20260904224020 | 18 | 279 | 4.8 | 14.5 | 0.00 | 0.10 | 0.00 | 78 | 1007.3 |
| 20260904223518 | 18 | 287 | 4.8 | 12.9 | 0.00 | 0.10 | 0.00 | 79 | 1007.4 |
| 20260904223016 | 19 | 283 | 4.8 | 17.7 | 0.00 | 0.10 | 0.00 | 79 | 1007.3 |
| 20260904222534 | 18 | 288 | 3.2 | 6.4 | 0.00 | 0.10 | 0.00 | 79 | 1007.3 |
| 20260904222032 | 19 | 287 | 6.4 | 16.1 | 0.00 | 0.10 | 0.00 | 80 | 1007.5 |
| 20260904221531 | 19 | 282 | 4.8 | 12.9 | 0.00 | 0.10 | 0.00 | 80 | 1007.5 |
| 20260904221029 | 19 | 277 | 8.0 | 20.9 | 0.05 | 0.10 | 0.00 | 81 | 1007.7 |
| 20260904220527 | 19 | 283 | 8.0 | 16.1 | 0.08 | 0.10 | 0.00 | 81 | 1007.9 |
| 20260904220025 | 19 | 294 | 9.7 | 22.5 | 0.08 | 0.10 | 0.10 | 81 | 1008.1 |
| 20260904215523 | 19 | 276 | 11.3 | 22.5 | 0.08 | 0.10 | 0.10 | 81 | 1008.2 |
| 20260904215022 | 19 | 279 | 9.7 | 17.7 | 0.08 | 0.10 | 0.10 | 81 | 1007.7 |
| 20260904214519 | 19 | 280 | 9.7 | 24.1 | 0.08 | 0.10 | 0.10 | 80 | 1007.7 |
| 20260904214017 | 20 | 285 | 9.7 | 20.9 | 0.08 | 0.10 | 0.10 | 80 | 1007.6 |
| 20260904213516 | 20 | 279 | 11.3 | 24.1 | 0.10 | 0.10 | 0.10 | 80 | 1007.6 |
| 20260904213034 | 20 | 284 | 11.3 | 24.1 | 0.10 | 0.10 | 0.10 | 80 | 1007.7 |
| 20260904212532 | 20 | 276 | 11.3 | 30.6 | 0.10 | 0.10 | 0.10 | 79 | 1007.7 |
| 20260904212030 | 20 | 288 | 11.3 | 24.1 | 0.10 | 0.10 | 0.10 | 79 | 1007.9 |
| 20260904211528 | 21 | 296 | 11.3 | 30.6 | 0.10 | 0.10 | 0.10 | 77 | 1007.9 |
| 20260904211026 | 21 | 293 | 16.1 | 38.6 | 0.05 | 0.05 | 0.05 | 74 | 1008.0 |
| 20260904210524 | 21 | 293 | 19.3 | 43.5 | 0.03 | 0.03 | 0.03 | 72 | 1007.9 |
| 20260904210022 | 22 | 299 | 24.1 | 51.5 | 0.03 | 0.03 | 0.03 | 68 | 1007.6 |
| 20260904205520 | 22 | 285 | 19.3 | 82.1 | 0.03 | 0.03 | 0.03 | 67 | 1006.9 |
| 20260904205019 | 22 | 286 | 9.7 | 24.1 | 0.03 | 0.03 | 0.03 | 67 | 1006.3 |
| 20260904204516 | 22 | 244 | 6.4 | 20.9 | 0.03 | 0.03 | 0.03 | 67 | 1005.9 |
| 20260904204035 | 22 | 260 | 6.4 | 14.5 | 0.03 | 0.03 | 0.03 | 66 | 1005.8 |
| 20260904203533 | 23 | 258 | 11.3 | 27.4 | 0.00 | 0.00 | 0.00 | 63 | 1005.9 |
| 20260904203030 | 22 | 223 | 11.3 | 22.5 | 0.00 | 0.00 | 0.00 | 62 | 1006.0 |
| 20260904202529 | 22 | 233 | 9.7 | 25.7 | 0.00 | 0.00 | 0.00 | 62 | 1006.0 |
| 20260904202026 | 22 | 249 | 11.3 | 27.4 | 0.00 | 0.00 | 0.00 | 62 | 1006.0 |
| 20260904201524 | 22 | 237 | 9.7 | 17.7 | 0.00 | 0.00 | 0.00 | 62 | 1006.1 |
| 20260904201022 | 22 | 240 | 9.7 | 22.5 | 0.00 | 0.00 | 0.00 | 62 | 1006.1 |
| 20260904200520 | 22 | 246 | 11.3 | 25.7 | 0.00 | 0.00 | 0.00 | 62 | 1006.2 |
| 20260904200018 | 22 | 252 | 9.7 | 17.7 | 0.00 | 0.00 | 0.00 | 62 | 1006.3 |
| 20260904195516 | 22 | 244 | 11.3 | 22.5 | 0.00 | 0.00 | 0.00 | 63 | 1006.3 |
| 20260904195034 | 22 | 248 | 9.7 | 22.5 | 0.00 | 0.00 | 0.00 | 63 | 1006.4 |
| 20260904194532 | 22 | 252 | 9.7 | 24.1 | 0.00 | 0.00 | 0.00 | 63 | 1006.6 |
| 20260904194030 | 22 | 260 | 12.9 | 27.4 | 0.00 | 0.00 | 0.00 | 63 | 1006.7 |
| 20260904193528 | 22 | 250 | 9.7 | 22.5 | 0.00 | 0.00 | 0.00 | 63 | 1006.7 |
| 20260904193026 | 22 | 243 | 8.0 | 22.5 | 0.00 | 0.00 | 0.00 | 63 | 1006.7 |
| 20260904192524 | 22 | 245 | 11.3 | 24.1 | 0.00 | 0.00 | 0.00 | 63 | 1006.7 |
| 20260904192022 | 22 | 216 | 9.7 | 30.6 | 0.00 | 0.00 | 0.00 | 64 | 1006.8 |
| 20260904191520 | 22 | 242 | 11.3 | 25.7 | 0.00 | 0.00 | 0.00 | 64 | 1006.9 |
| 20260904191018 | 22 | 224 | 9.7 | 22.5 | 0.00 | 0.00 | 0.00 | 64 | 1006.9 |
| 20260904190516 | 22 | 234 | 9.7 | 24.1 | 0.00 | 0.00 | 0.00 | 64 | 1007.0 |
| 20260904190034 | 22 | 235 | 9.7 | 24.1 | 0.00 | 0.00 | 0.00 | 64 | 1007.2 |
| 20260904185533 | 22 | 236 | 9.7 | 22.5 | 0.00 | 0.00 | 0.00 | 64 | 1007.1 |
| 20260904185031 | 22 | 234 | 9.7 | 35.4 | 0.00 | 0.00 | 0.00 | 64 | 1007.3 |
| 20260904184528 | 22 | 234 | 11.3 | 30.6 | 0.00 | 0.00 | 0.00 | 64 | 1007.4 |
| 20260904184026 | 22 | 235 | 9.7 | 20.9 | 0.00 | 0.00 | 0.00 | 65 | 1007.4 |
| 20260904183524 | 22 | 233 | 9.7 | 24.1 | 0.00 | 0.00 | 0.00 | 65 | 1007.5 |
| 20260904183022 | 22 | 249 | 8.0 | 16.1 | 0.00 | 0.00 | 0.00 | 65 | 1007.6 |
| 20260904182521 | 22 | 221 | 8.0 | 17.7 | 0.00 | 0.00 | 0.00 | 65 | 1007.7 |
| 20260904182018 | 22 | 223 | 8.0 | 16.1 | 0.00 | 0.00 | 0.00 | 65 | 1007.7 |
| 20260904181517 | 22 | 208 | 6.4 | 14.5 | 0.00 | 0.00 | 0.00 | 65 | 1007.8 |
| 20260904181035 | 22 | 222 | 6.4 | 14.5 | 0.00 | 0.00 | 0.00 | 65 | 1007.8 |
| 20260904180533 | 22 | 219 | 4.8 | 12.9 | 0.00 | 0.00 | 0.00 | 65 | 1008.0 |
| 20260904180031 | 22 | 240 | 8.0 | 16.1 | 0.00 | 0.00 | 0.00 | 65 | 1008.1 |
| 20260904175529 | 22 | 218 | 8.0 | 14.5 | 0.00 | 0.00 | 0.00 | 65 | 1008.1 |
| 20260904175027 | 22 | 221 | 6.4 | 14.5 | 0.00 | 0.00 | 0.00 | 65 | 1008.0 |
| 20260904174525 | 22 | 223 | 6.4 | 11.3 | 0.00 | 0.00 | 0.00 | 65 | 1008.0 |
| 20260904174022 | 22 | 221 | 6.4 | 11.3 | 0.00 | 0.00 | 0.00 | 65 | 1008.2 |
| 20260904173520 | 22 | 212 | 4.8 | 12.9 | 0.00 | 0.00 | 0.00 | 64 | 1008.3 |
| 20260904173018 | 22 | 245 | 6.4 | 16.1 | 0.00 | 0.00 | 0.00 | 64 | 1008.3 |
| 20260904172516 | 22 | 227 | 4.8 | 11.3 | 0.00 | 0.00 | 0.00 | 64 | 1008.4 |
| 20260904172035 | 22 | 234 | 4.8 | 12.9 | 0.00 | 0.00 | 0.00 | 64 | 1008.3 |
| 20260904171532 | 22 | 243 | 4.8 | 12.9 | 0.00 | 0.00 | 0.00 | 64 | 1008.5 |
| 20260904171029 | 22 | 243 | 4.8 | 14.5 | 0.00 | 0.00 | 0.00 | 64 | 1008.5 |
| 20260904170528 | 22 | 243 | 4.8 | 14.5 | 0.00 | 0.00 | 0.00 | 64 | 1008.5 |
| 20260904170025 | 22 | 237 | 6.4 | 20.9 | 0.00 | 0.00 | 0.00 | 63 | 1008.4 |
| 20260904165523 | 22 | 230 | 6.4 | 11.3 | 0.00 | 0.00 | 0.00 | 63 | 1008.4 |